Regional Weather Roundup
Issued by NWS

Home | Current Version | Previous Version | Text Only | Print | Product List | Glossary On
Versions: 1 2 3 4 5 6 7 8 9 10 11 12 13 14 15 16 17 18 19 20 21 22 23 24 25 26 27 28 29 30 31 32 33 34 35 36 37 38 39 40 41 42 43 44 45 46 47 48 49 50
000
ASUS42 KKEY 020410
RWRKEY

FLORIDA REGIONAL WEATHER ROUNDUP FOR THE FLORIDA KEYS
NATIONAL WEATHER SERVICE KEY WEST FLORIDA
1200 AM EDT WED SEP 02 2015

...SOUTH FLORIDA AND THE KEYS...

CITY           SKY/WX    TMP DP  RH WIND       PRES   REMARKS
FORT MYERS     MOCLDY    79  75  87 SE3       30.06S
SW REGIONAL AP MOCLDY    80  75  84 E5        30.07S
NAPLES         MOCLDY    81  76  84 SE8       30.07R
MIAMI          PTCLDY    83  77  82 SE5       30.08F HX  92
WEST KENDALL   CLEAR     79  74  84 CALM      30.08F
HOMESTEAD      CLEAR     82  76  82 NE5       30.07F HX  90
MARATHON       CLEAR     85  77  77 E8        30.07S HX  95
BOCA CHICA NAS PTCLDY    85  76  74 E12       30.06F HX  94
KEY WEST INTL  PTCLDY    86  76  71 E8        30.07F HX  96

...INTERNATIONAL WEATHER...

CITY           SKY/WX    TMP DP  RH WIND       PRES   REMARKS
NASSAU BAHAMAS PTCLDY    84  77  79 E5        30.10F HX  94
CANCUN MEXICO  MOCLDY    84  79  84 E9        30.03F HX  96
COZUMEL MEXICO PTCLDY    75  75 100 E6        30.03S

ADJACENT COASTAL WATERS...

STATION/POSITION TIME  SKY/WX   TEMP    WIND        PRES    WAVE
                                AIR SEA DIR/SP/G            HT/PER
                 (UTC)          (F)     (DEG/KT/KT) (MB)    (FT/S)
PULASKI SHOAL LI 0300                                 N/A
SAND KEY         0350            86        CALM     1018.1S
SOMBRERO KEY     NOT AVBL
LONG KEY         0300            85 87  100/ 11/ 13 1019.1R
MOLASSES REEF    0400            85 87  110/  8/  9 1018.3R
FOWEY ROCKS      NOT AVBL

$$



USA.gov is the U.S. government's official web portal to all federal, state and local government web resources and services.